This demonstration page uses our WeatherBlox Daily Observations layout. Learn more.

Left ArrowRight Arrow

39.01783, -85.05884

Hourly Observations for August 28, 2017

Temp ( °F °C ) Dew Point ( °F °C ) Humidity (%) Winds ( mph kmh ) Pressure ( in mb ) Visibility ( mi km ) Precip ( " mm )
12:52 am 00:52 Mostly Cloudy 70 21.1 59 15 68 68 E 5 7 30.02 1017 10 16 0.00 0.00
1:52 am 01:52 Partly Cloudy 67 19.4 60 15.6 79 79 E 6 9 30.00 1016 10 16 0.00 0.00
2:52 am 02:52 Partly Cloudy 67 19.4 60 15.6 79 79 E 5 7 29.98 1015 10 16 0.00 0.00
3:52 am 03:52 Partly Cloudy 66 18.9 60 15.6 81 81 ESE 5 7 29.97 1015 10 16 0.00 0.00
4:52 am 04:52 Mostly Cloudy 67 19.4 61 16.1 81 81 E 3 6 29.98 1015 10 16 0.00 0.00
5:52 am 05:52 Cloudy 65 18.3 63 17.2 93 93 N 6 9 30.00 1016 10 16 0.00 0.00
6:52 am 06:52 Cloudy 66 18.9 63 17.2 90 90 E 6 9 30.01 1016 10 16 0.00 0.03
7:52 am 07:52 Cloudy 67 19.4 63 17.2 87 87 ENE 5 7 30.01 1016 8 13 0.00 0.00
8:52 am 08:52 Cloudy 68 20 64 17.8 87 87 ENE 5 7 30.02 1017 9 14 0.00 0.00
9:52 am 09:52 Cloudy 67 19.4 65 18.3 93 93 N 6 9 30.03 1017 8 13 0.00 0.00
10:52 am 10:52 Cloudy 70 21.1 65 18.3 84 84 NNE 5 7 30.03 1017 8 13 0.00 0.00
11:52 am 11:52 Cloudy 75 23.9 66 18.9 74 74 E 10 17 30.01 1016 9 14 0.00 0.00
12:52 pm 12:52 Cloudy with Light Rain 73 22.8 68 20 84 84 SE 8 13 30.02 1017 8 13 0.00 0.03
1:52 pm 13:52 Cloudy 74 23.3 70 21.1 88 88 SE 9 15 30.02 1017 9 14 0.00 0.03
2:03 pm 14:03 Mostly Cloudy 74 23.3 70 21.1 88 88 SSE 9 15 30.03 1017 9 14 0.00 0.00
2:20 pm 14:20 Cloudy 74 23.3 69 20.6 85 85 SSE 7 11 30.03 1017 9 14 0.00 0.00
2:52 pm 14:52 Cloudy 76 24.4 69 20.6 79 79 SW 5 7 30.01 1016 10 16 0.00 0.00
3:50 pm 15:50 Mostly Cloudy 75 24 70 21 83 83 S 6 9 30.00 1016 10 16 0.00 0.00
3:52 pm 15:52 Cloudy 76 24.4 69 20.6 79 79 S 5 7 30.00 1016 10 16 0.00 0.00
4:28 pm 16:28 Cloudy 76 24.4 69 20.6 79 79 Calm 30.00 1016 10 16 0.00 0.00
4:52 pm 16:52 Cloudy 76 24.4 68 20 77 77 SSE 6 9 30.00 1016 10 16 0.00 0.00
5:52 pm 17:52 Mostly Cloudy 74 23.3 66 18.9 76 76 SSE 13 20 29.99 1016 10 16 0.00 0.00
6:52 pm 18:52 Mostly Cloudy with Thunderstorms 72 22.2 66 18.9 82 82 SE 16 26 30.00 1016 10 16 0.00 0.03
7:31 pm 19:31 Mostly Cloudy 71 21.7 67 19.4 87 87 SSE 16 26 30.00 1016 10 16 0.00 0.00
7:52 pm 19:52 Mostly Cloudy 71 21.7 67 19.4 87 87 SSE 14 22 30.00 1016 10 16 0.00 0.00
8:52 pm 20:52 Mostly Cloudy 70 21.1 67 19.4 90 90 SSE 9 15 30.01 1016 10 16 0.00 0.00
9:52 pm 21:52 Cloudy 69 20.6 67 19.4 93 93 SSE 13 20 30.01 1016 10 16 0.00 0.00
10:52 pm 22:52 Cloudy 68 20 66 18.9 93 93 S 9 15 30.02 1017 10 16 0.00 0.00
11:52 pm 23:52 Cloudy 67 19.4 65 18.3 93 93 S 8 13 30.01 1016 10 16 0.00 0.00

Powered by AerisWeather